When you browse on this site, cookies collect data to enhance your experience and personalize the content and advertising you see.
Visit our Privacy Policy to learn more. By continuing to use the site, you agree to this use of cookies and data.
  • In Austria
  • List of Countries
  • For 7 days
  • Water Temperature
  • Satellite Maps
  • Weather Map
  • News
  • Weather Widgets
  • user-avatar
    Login

    Hourly Weather Strongsville

    Today, 22 April, Monday

    Time Temperature Precipitation Wind Pressure Humidity
    00:00 +9°C° 0 mm 1 mps 741 mmHg 85%
    01:00 +8°C° 0 mm 1 mps 741 mmHg 88%
    02:00 +8°C° 0 mm 1 mps 741 mmHg 88%
    03:00 +8°C° 0 mm 1 mps 741 mmHg 88%
    04:00 +7°C° 0 mm 1 mps 741 mmHg 88%
    05:00 +8°C° 0 mm 1 mps 742 mmHg 84%
    06:00 +9°C° 0 mm 1 mps 742 mmHg 81%
    07:00 +10°C° 0 mm 1 mps 742 mmHg 76%
    08:00 +12°C° 0 mm 1 mps 742 mmHg 71%
    09:00 +13°C° 0 mm 1 mps 743 mmHg 65%
    10:00 +15°C° 0 mm 2 mps 743 mmHg 60%
    11:00 +17°C° 0 mm 2 mps 742 mmHg 57%
    12:00 +18°C° 0 mm 2 mps 742 mmHg 53%
    13:00 +20°C° 0 mm 2 mps 742 mmHg 50%
    14:00 +20°C° 0 mm 2 mps 741 mmHg 50%
    15:00 +21°C° 0 mm 2 mps 741 mmHg 51%
    16:00 +21°C° 0 mm 2 mps 740 mmHg 51%
    17:00 +20°C° 0 mm 2 mps 740 mmHg 57%
    18:00 +18°C° 0 mm 2 mps 739 mmHg 63%
    19:00 +17°C° 0 mm 2 mps 739 mmHg 70%
    20:00 +16°C° 0 mm 2 mps 739 mmHg 72%
    21:00 +14°C° 0 mm 3 mps 739 mmHg 74%
    22:00 +13°C° 0 mm 3 mps 739 mmHg 77%
    23:00 +13°C° 0 mm 3 mps 738 mmHg 76%

    Tomorrow, 23 April, Tuesday

    Time Temperature Precipitation Wind Pressure Humidity
    00:00 +13°C° 0 mm 4 mps 738 mmHg 76%
    01:00 +13°C° 0 mm 4 mps 738 mmHg 75%
    02:00 +13°C° 0 mm 5 mps 737 mmHg 75%
    03:00 +13°C° 0 mm 5 mps 737 mmHg 74%
    04:00 +13°C° 0 mm 6 mps 736 mmHg 74%
    05:00 +13°C° 0 mm 6 mps 736 mmHg 74%
    06:00 +12°C° 0 mm 7 mps 735 mmHg 73%
    07:00 +14°C° 0 mm 7 mps 735 mmHg 73%
    08:00 +14°C° 0.7 mm 7 mps 734 mmHg 77%
    09:00 +15°C° 0.7 mm 6 mps 734 mmHg 81%
    10:00 +15°C° 0.7 mm 6 mps 734 mmHg 85%
    11:00 +16°C° 0.1 mm 6 mps 734 mmHg 84%
    12:00 +17°C° 0.1 mm 6 mps 734 mmHg 84%
    13:00 +17°C° 0.1 mm 7 mps 733 mmHg 83%
    14:00 +17°C° 0.1 mm 7 mps 733 mmHg 82%
    15:00 +16°C° 0.1 mm 7 mps 733 mmHg 80%
    16:00 +16°C° 0.1 mm 7 mps 733 mmHg 78%
    17:00 +15°C° 0 mm 6 mps 733 mmHg 79%
    18:00 +14°C° 0 mm 6 mps 734 mmHg 79%
    19:00 +13°C° 0 mm 5 mps 734 mmHg 79%
    20:00 +12°C° 0 mm 5 mps 734 mmHg 81%
    21:00 +11°C° 0 mm 4 mps 735 mmHg 82%
    22:00 +8°C° 0 mm 4 mps 735 mmHg 84%
    23:00 +9°C° 0 mm 3 mps 736 mmHg 82%

    Day after tomorrow, 24 April, Wednesday

    Time Temperature Precipitation Wind Pressure Humidity
    00:00 +8°C° 0 mm 3 mps 736 mmHg 81%
    01:00 +7°C° 0 mm 3 mps 736 mmHg 80%
    02:00 +7°C° 0 mm 3 mps 736 mmHg 81%
    03:00 +5°C° 0 mm 3 mps 736 mmHg 83%
    04:00 +5°C° 0 mm 2 mps 736 mmHg 84%
    05:00 +6°C° 0 mm 2 mps 737 mmHg 82%
    06:00 +6°C° 0 mm 2 mps 737 mmHg 79%
    07:00 +6°C° 0 mm 2 mps 737 mmHg 76%
    08:00 +8°C° 0 mm 2 mps 738 mmHg 68%
    09:00 +10°C° 0 mm 2 mps 738 mmHg 60%
    10:00 +11°C° 0 mm 3 mps 738 mmHg 52%
    11:00 +12°C° 0 mm 3 mps 738 mmHg 48%
    12:00 +13°C° 0 mm 3 mps 737 mmHg 44%
    13:00 +14°C° 0 mm 3 mps 737 mmHg 40%
    14:00 +14°C° 0 mm 3 mps 737 mmHg 40%
    15:00 +14°C° 0 mm 3 mps 736 mmHg 39%
    16:00 +15°C° 0 mm 2 mps 736 mmHg 39%
    17:00 +14°C° 0 mm 2 mps 736 mmHg 42%
    18:00 +12°C° 0 mm 1 mps 736 mmHg 46%
    19:00 +10°C° 0 mm 1 mps 736 mmHg 50%
    20:00 +10°C° 0 mm 1 mps 736 mmHg 48%
    21:00 +9°C° 0 mm 1 mps 736 mmHg 46%
    22:00 +9°C° 0 mm 1 mps 736 mmHg 44%
    23:00 +7°C° 0 mm 2 mps 736 mmHg 46%

    25 April, Thursday

    Time Temperature Precipitation Wind Pressure Humidity
    00:00 +7°C° 0 mm 2 mps 736 mmHg 47%
    01:00 +7°C° 0 mm 2 mps 736 mmHg 48%
    02:00 +7°C° 0 mm 2 mps 736 mmHg 51%
    03:00 +6°C° 0 mm 2 mps 735 mmHg 54%
    04:00 +5°C° 0 mm 3 mps 735 mmHg 56%
    05:00 +7°C° 0 mm 3 mps 735 mmHg 59%
    06:00 +7°C° 0 mm 3 mps 735 mmHg 62%
    07:00 +8°C° 0 mm 3 mps 735 mmHg 65%
    08:00 +11°C° 0 mm 3 mps 735 mmHg 61%
    09:00 +13°C° 0 mm 3 mps 735 mmHg 58%
    10:00 +17°C° 0 mm 3 mps 734 mmHg 54%
    11:00 +18°C° 0 mm 2 mps 734 mmHg 52%
    12:00 +19°C° 0 mm 2 mps 734 mmHg 50%
    13:00 +20°C° 0 mm 2 mps 733 mmHg 48%
    14:00 +20°C° 0 mm 2 mps 733 mmHg 54%
    15:00 +20°C° 0 mm 2 mps 732 mmHg 59%
    16:00 +19°C° 0 mm 2 mps 731 mmHg 65%
    17:00 +18°C° 0 mm 2 mps 731 mmHg 73%
    18:00 +17°C° 0 mm 2 mps 730 mmHg 80%
    19:00 +16°C° 0 mm 2 mps 730 mmHg 88%
    20:00 +15°C° 0 mm 1 mps 730 mmHg 91%
    21:00 +15°C° 0 mm 1 mps 730 mmHg 93%
    22:00 +14°C° 0 mm 1 mps 730 mmHg 95%
    23:00 +14°C° 0.5 mm 1 mps 729 mmHg 96%

    26 April, Friday

    Time Temperature Precipitation Wind Pressure Humidity
    00:00 +14°C° 0.5 mm 1 mps 729 mmHg 97%
    01:00 +14°C° 0.5 mm 1 mps 728 mmHg 97%
    02:00 +12°C° 1 mm 3 mps 728 mmHg 95%
    03:00 +12°C° 1 mm 4 mps 728 mmHg 93%
    04:00 +10°C° 1 mm 6 mps 728 mmHg 91%
    05:00 +9°C° 1.2 mm 7 mps 729 mmHg 91%
    06:00 +8°C° 1.2 mm 7 mps 730 mmHg 91%
    07:00 +6°C° 1.2 mm 7 mps 731 mmHg 91%
    08:00 +9°C° 0 mm 7 mps 732 mmHg 84%
    09:00 +10°C° 0 mm 7 mps 732 mmHg 78%
    10:00 +11°C° 0 mm 6 mps 733 mmHg 71%
    11:00 +13°C° 0 mm 6 mps 733 mmHg 63%
    12:00 +14°C° 0 mm 6 mps 734 mmHg 56%
    13:00 +15°C° 0 mm 6 mps 734 mmHg 48%
    14:00 +15°C° 0 mm 7 mps 734 mmHg 46%
    15:00 +15°C° 0 mm 7 mps 734 mmHg 43%
    16:00 +15°C° 0 mm 7 mps 735 mmHg 41%
    17:00 +12°C° 0 mm 7 mps 735 mmHg 45%
    18:00 +11°C° 0 mm 6 mps 736 mmHg 49%
    19:00 +9°C° 0 mm 5 mps 737 mmHg 52%
    20:00 +8°C° 0 mm 5 mps 737 mmHg 52%
    21:00 +7°C° 0 mm 4 mps 738 mmHg 52%
    22:00 +6°C° 0 mm 4 mps 738 mmHg 51%
    23:00 +6°C° 0 mm 4 mps 739 mmHg 52%

    27 April, Saturday

    Time Temperature Precipitation Wind Pressure Humidity
    00:00 +5°C° 0 mm 3 mps 739 mmHg 53%
    01:00 +4°C° 0 mm 3 mps 739 mmHg 53%
    02:00 +5°C° 0 mm 2 mps 739 mmHg 54%
    03:00 +5°C° 0 mm 2 mps 739 mmHg 54%
    04:00 +5°C° 0 mm 1 mps 739 mmHg 54%
    05:00 +6°C° 0 mm 1 mps 739 mmHg 55%
    06:00 +6°C° 0 mm 1 mps 740 mmHg 56%
    07:00 +7°C° 0 mm 1 mps 740 mmHg 57%
    08:00 +9°C° 0 mm 1 mps 740 mmHg 51%
    09:00 +10°C° 0 mm 2 mps 740 mmHg 45%
    10:00 +13°C° 0 mm 2 mps 739 mmHg 40%
    11:00 +13°C° 0 mm 2 mps 739 mmHg 41%
    12:00 +13°C° 0 mm 3 mps 738 mmHg 42%
    13:00 +14°C° 0 mm 3 mps 738 mmHg 43%
    14:00 +12°C° 0.5 mm 3 mps 737 mmHg 53%
    15:00 +11°C° 0.5 mm 4 mps 736 mmHg 62%
    16:00 +10°C° 0.5 mm 4 mps 736 mmHg 72%
    17:00 +9°C° 0 mm 5 mps 735 mmHg 72%
    18:00 +9°C° 0 mm 5 mps 735 mmHg 72%
    19:00 +9°C° 0 mm 6 mps 734 mmHg 73%
    20:00 +9°C° 0 mm 6 mps 734 mmHg 70%
    21:00 +10°C° 0 mm 7 mps 733 mmHg 67%
    22:00 +11°C° 0 mm 7 mps 733 mmHg 64%
    23:00 +11°C° 0 mm 7 mps 732 mmHg 66%
    Show more